Home   Weather   Portage la Prairie   Past weeks

Flag for Canada Past Weather in Portage la Prairie, Manitoba, Canada — Yesterday and Last 2 Weeks

Now
57 °F

Passing clouds.


Feels Like: 55 °F
Forecast: 48 / 66 °F
Wind: 12 mph from Southeast

Location: Portage Southport A

Current Time: Sep 29, 2016 at 8:34:31 PM

Latest Report: Sep 29, 2016 at 8:00 PM


Visibility: 15 mi

Pressure: 30.36 "Hg

Humidity: 72%

Dew Point: 48 °F

Location of Portage la PrairieLocation

Past Weather in Portage la Prairie — Graph

°F

Portage la Prairie Temperature Yesterday

Maximum temperature yesterday: 63 °F (at 3:00 PM)
Minimum temperature yesterday: 36 °F (at 8:00 AM)
Average temperature yesterday: 51 °F

High & Low Weather Summary for the Past Weeks

 TemperatureHumidityPressure
High73 °F (Sep 15, 6:00 PM)100% (Sep 15, 7:00 AM)30.48 "Hg (Sep 15, 7:00 AM)
Low36 °F (Sep 28, 8:00 AM)33% (Sep 17, 4:00 PM)29.65 "Hg (Sep 19, 6:00 AM)
Average56 °F68%30.09 "Hg
* Reported Sep 14 7:00 PM — Sep 29 7:00 PM, Portage la Prairie, Weather by CustomWeather, © 2016

Note: Actual official high and low records may vary slightly from our data, if they occured in-between our weather recording intervals... More about our weather records

Advertising

Portage la Prairie Weather History for the Previous 24 Hours

Scroll right to see more
 ConditionsComfort  
Time TempWeatherWind HumidityBarometerVisibility
7:00 PM
Thu, Sep 29
61 °FPassing clouds.14 mph68%30.36 "Hg15 mi
6:00 PM64 °FPassing clouds.15 mph60%30.37 "Hg15 mi
5:00 PM66 °FScattered clouds.14 mph60%30.37 "Hg15 mi
4:00 PM66 °FPartly sunny.15 mph60%30.38 "Hg15 mi
3:00 PM66 °FScattered clouds.16 mph60%30.40 "Hg15 mi
2:00 PM64 °FPassing clouds.15 mph60%30.42 "Hg15 mi
1:00 PM63 °FPassing clouds.13 mph64%30.44 "Hg15 mi
12:00 PM61 °FPassing clouds.15 mph68%30.46 "Hg15 mi
11:00 AM57 °FPassing clouds.12 mph72%30.47 "Hg15 mi
10:00 AM54 °FPassing clouds.8 mph88%30.48 "Hg15 mi
9:00 AM46 °FPassing clouds.7 mph100%30.47 "Hg15 mi
8:00 AM39 °FLight fog.6 mph100%30.47 "Hg10 mi
7:00 AM39 °FPassing clouds.6 mph100%30.47 "Hg15 mi
6:00 AM39 °FClear.5 mph100%30.46 "Hg15 mi
11:00 PM
Wed, Sep 28
45 °FClear.6 mph93%30.43 "Hg15 mi
10:00 PM46 °FClear.3 mph87%30.42 "Hg15 mi
9:00 PM48 °FClear.No wind87%30.41 "Hg15 mi
8:00 PM54 °FClear.3 mph77%30.40 "Hg15 mi
Weather by CustomWeather, © 2016

See weather overviewHow to use our weather pages